www.pogodaiklimat.ru

Погода и климат >> Архив погоды >> Хорватия >> Мали-Лошинь


ПОГОДА в Мали-Лошине

  • Прогноз погоды в Мали-Лошине
  • Монитор погоды в Мали-Лошине

АРХИВ ПОГОДЫ в Мали-Лошине

Время (UTC), дата Ветер
(напр.,м/с)
 
Видим.   Явления Облачность Т
(С)
Тd
(С)
f
(%)
Тe
(С)
Тes
(С)
Комфортность P
(гПа)
Po
(гПа)
Тmin
(С)
Tmax
(С)
R
(мм)
R24
(мм)
S
(см)
03 15.09 С 3 н/о н/о +21.5 +15.2 67 +25 +25 комфорт 1024.6 1018.3
04 15.09 СЗ 2 н/о н/о +21.2 +15.6 70 +24 +24 комфорт 1024.5 1018.2
05 15.09 С 2 н/о н/о +20.8 +14.7 68 +24 +24 комфорт 1024.6 1018.3
06 15.09 С 2 20 км 4/0
[Ci sp]
+21.0 +15.1 69 +25 +26 комфорт 1025.1 1018.8 +20.9
07 15.09 С 2 20 км 3/0
[Ci sp]
+22.2 +15.9 67 +26 +29 душно 1025.1 1018.9
08 15.09 С 3 20 км 4/0
[Cs]
+23.7 +15.4 60 +27 +31 жарко 1025.0 1018.8
09 15.09 СВ 2 25 км 4/0
[Cs]
+25.4 +16.0 56 +29 +37 душно 1024.9 1018.7
10 15.09 СВ 1 25 км 3/0
[Cs]
+26.5 +14.2 47 +29 +41 жарко 1024.7 1018.6
11 15.09 С 1 25 км 3/0
[Cs]
+26.6 +13.3 44 +29 +42 жарко 1024.4 1018.3
12 15.09 З 2 30 км 3/0
[Cs]
+28.1 +15.1 45 +31 +41 душно 1023.7 1017.6
13 15.09 З 3 30 км 3/0
[Ci sp]
+27.6 +14.2 44 +30 +37 жарко 1023.4 1017.3
14 15.09 З 3 н/о н/о +26.8 +13.6 44 +29 +29 жарко 1022.7 1016.5
15 15.09 ЮЗ 3 н/о н/о +26.4 +16.1 53 +30 +30 душно 1022.3 1016.1
16 15.09 З 2 н/о н/о +25.9 +16.5 56 +29 +29 душно 1022.1 1015.9
17 15.09 З 2 н/о н/о +23.7 +16.8 65 +27 +27 жарко 1021.8 1015.6
18 15.09 ЮЗ 2 25 км 3/0
[As trans Ci]
+22.8 +17.9 74 +28 +28 душно 1021.8 1015.6 +28.3
19 15.09 ЮЗ 1 25 км 3/0
[Ci sp]
+21.9 +19.0 84 +27 +27 душно 1021.8 1015.6
20 15.09 ЮЗ 1 25 км 3/0
[Ci sp]
+21.3 +18.7 85 +26 +26 душно 1021.8 1015.6
21 15.09 ЮЗ 1 н/о н/о +20.9 +18.5 86 +26 +26 душно 1021.8 1015.5
00 16.09 С 1 н/о н/о +20.4 +18.6 89 +25 +25 комфорт 1020.8 1014.5
03 16.09 штиль 0 н/о н/о +20.0 +16.9 82 +22 +22 комфорт 1019.7 1013.4
04 16.09 ЮЗ 1 н/о н/о +19.8 +18.0 89 +24 +24 комфорт 1019.4 1013.1
05 16.09 ЮЗ 1 н/о н/о +19.8 +18.5 92 +24 +24 комфорт 1019.5 1013.2
06 16.09 З 1 20 км 5/0
[Ac trans Cs]
+20.2 +18.3 89 +25 +25 комфорт 1019.4 1013.2 +19.6
07 16.09 С 1 25 км 3/0
[Cs]
+21.3 +17.8 80 +25 +29 комфорт 1019.6 1013.4
08 16.09 СЗ 2 25 км 3/0
[Ci sp]
+23.4 +17.0 67 +29 +34 душно 1019.6 1013.4
09 16.09 З 1 25 км 3/0
[Ci]
+25.1 +17.4 62 +29 +39 душно 1019.5 1013.4
10 16.09 ЮЗ 3 25 км 3/0
[Ci]
+26.6 +18.4 61 +31 +40 душно 1019.3 1013.2
11 16.09 ЮЗ 3 25 км 3/0
[Ac trans Ci sp]
+26.9 +17.2 55 +31 +40 душно 1018.9 1012.8
12 16.09 ЮЗ 4 20 км 1/0
[Ci sp]
+27.8 +17.4 53 +32 +39 душно 1018.3 1012.2
13 16.09 ЮЗ 4 20 км 1/0
[Ci sp]
+28.2 +17.9 54 +33 +39 очень
душно
1017.9 1011.8
14 16.09 ЮЗ 4 н/о н/о +28.0 +16.7 50 +32 +32 душно 1017.5 1011.4
15 16.09 ЮЗ 4 н/о н/о +27.4 +14.8 46 +30 +30 жарко 1017.0 1010.9
16 16.09 ЮЗ 3 н/о н/о +25.9 +18.1 62 +30 +30 душно 1016.5 1010.4
17 16.09 ЮЗ 2 н/о н/о +24.1 +18.8 72 +29 +29 душно 1016.5 1010.3
18 16.09 З 1 25 км 1/0
[Ci fib]
+22.7 +18.9 79 +29 +29 очень
душно
1016.6 1010.4 +28.4
19 16.09 ЮЗ 1 25 км ясно +22.0 +18.5 81 +27 +27 душно 1016.6 1010.4
20 16.09 ЮЗ 1 25 км ясно +21.5 +18.3 82 +26 +26 душно 1016.6 1010.4
21 16.09 ЮЗ 1 н/о н/о +21.1 +18.6 86 +25 +25 комфорт 1016.7 1010.5
00 17.09 ЮЗ 1 н/о н/о +20.4 +18.8 91 +25 +25 комфорт 1016.4 1010.2
03 17.09 н/о н/о +20.1 +19.2 95 1015.3 1009.1
04 17.09 СВ 1 н/о н/о +19.8 +18.7 93 +24 +24 комфорт 1015.3 1009.0
05 17.09 СВ 1 н/о н/о +19.5 +18.6 95 +23 +23 комфорт 1015.5 1009.2
06 17.09 В 1 12 км 1/0
[Ci fib]
+20.1 +18.2 89 +24 +25 комфорт 1015.6 1009.4 +19.5
07 17.09 В 2 11 км ясно +21.4 +19.4 88 +26 +29 душно 1015.8 1009.6
08 17.09 В 2 11 км 3/0
[Ci sp]
+22.5 +20.1 86 +29 +34 очень
душно
1016.0 1009.8
09 17.09 СВ 2 11 км 3/1 1000 м
[Cu med, cong Ci sp]
+23.2 +20.1 83 +30 +38 очень
душно
1016.0 1009.9
10 17.09 В 1 11 км 8/8 1000 м
[Cu Sc]
+24.1 +19.2 74 +29 +32 душно 1015.9 1009.8
11 17.09 Ю 2 11 км 8/5 1000 м
[Cu Sc As trans]
+25.0 +17.4 63 +29 +33 душно 1015.7 1009.6
12 17.09 Ю 3 11 км 8/5 1000 м
[Cu Sc As trans]
+26.8 +16.3 53 +30 +33 душно 1015.1 1009.0
13 17.09 Ю 3 11 км 5/4 1000 м
[Cu Sc As trans]
+27.2 +18.1 58 +32 +36 очень
душно
1014.8 1008.7
14 17.09 Ю 2 н/о н/о +27.1 +18.5 59 +32 +32 очень
душно
1014.3 1008.2
15 17.09 Ю 3 н/о н/о +27.2 +18.6 59 +32 +32 очень
душно
1014.0 1007.9
16 17.09 Ю 3 н/о н/о +25.7 +20.1 71 +32 +32 очень
душно
1013.8 1007.7
17 17.09 Ю 1 н/о н/о +24.2 +19.6 76 +29 +29 душно 1013.4 1007.3
18 17.09 Ю 1 13 км 5/3 1000 м
[Cu Sc Ac As]
+23.2 +19.6 80 +30 +30 очень
душно
1013.8 1007.7 +27.7
19 17.09 В 1 13 км 6/4 1000 м
[Cu Sc Ac As]
+22.5 +19.4 83 +29 +29 очень
душно
1014.1 1008.0
20 17.09 ЮВ 1 13 км 8/6 1000 м
[Cu Sc Ac As]
+22.1 +19.6 86 +28 +28 душно 1014.5 1008.3
21 17.09 В 2 н/о н/о +21.6 +19.4 87 +27 +27 душно 1014.2 1008.0
00 18.09 В 2 н/о н/о +21.4 +19.6 89 +26 +26 душно 1014.3 1008.1
03 18.09 ЮВ 2 н/о н/о +21.2 +19.7 91 +26 +26 душно 1014.0 1007.8
04 18.09 В 2 н/о н/о +21.2 +20.1 93 +26 +26 душно 1014.2 1008.0
05 18.09 В 3 н/о н/о +21.2 +19.7 91 +26 +26 душно 1014.4 1008.2
06 18.09 В 3 20 км 8/6 1000 м
[Cu Sc Ac trans]
+21.7 +18.5 82 +26 +27 душно 1014.9 1008.7 +21.2
07 18.09 СВ 3 20 км 8/5 1000 м
[Cu Sc Ac trans]
+22.3 +17.6 75 +27 +28 душно 1015.4 1009.2
08 18.09 СВ 2 20 км 8/3 1000 м
[Cu Sc Ac trans Cc]
+23.7 +17.3 67 +28 +30 душно 1016.0 1009.9
09 18.09 СВ 2 20 км 8/4 1000 м
[Cu Sc Ac trans]
+24.2 +18.2 69 +29 +32 душно 1015.7 1009.6
10 18.09 СВ 3 20 км 8/5 1000 м
[Cu Sc Ac As]
+24.8 +17.5 64 +29 +31 душно 1016.1 1010.0
11 18.09 СВ 3 20 км 8/4 1000 м
[Cu Sc Ac As]
+25.5 +17.3 60 +29 +32 душно 1015.7 1009.6
12 18.09 СВ 4 20 км 9/4 1000 м
[Cu Sc Ac As]
+24.1 +17.2 65 +28 +30 душно 1015.9 1009.8
13 18.09 С 2 20 км 9/8 1000 м
[Cu Sc Ac As]
+24.2 +17.0 64 +28 +29 душно 1015.9 1009.8
14 18.09 СВ 3 н/о н/о +24.0 +16.3 62 +27 +27 жарко 1016.1 1009.9
15 18.09 С 4 н/о н/о +22.7 +15.4 63 +27 +27 душно 1015.9 1009.7
16 18.09 С 5 н/о н/о +21.9 +14.6 63 +25 +25 комфорт 1015.9 1009.7
17 18.09 С 4 н/о н/о +21.1 +14.1 64 +24 +24 комфорт 1016.2 1010.0
18 18.09 С 4 20 км 9/4 1000 м
[Sc Ac As]
+20.7 +13.9 65 +23 +23 комфорт 1016.5 1010.3 +26.0
19 18.09 С 5 20 км 6/3 1000 м
[Sc Ac As]
+20.2 +12.9 63 +22 +22 комфорт 1016.7 1010.5
20 18.09 С 3 20 км 6/3 1000 м
[Sc Ac As]
+19.9 +13.3 66 +22 +22 комфорт 1017.0 1010.8
21 18.09 С 3 н/о н/о +19.6 +12.7 64 +21 +21 комфорт 1017.2 1010.9
00 19.09 С 3 н/о н/о +18.7 +13.4 71 +20 +20 1017.4 1011.1
03 19.09 СВ 1 н/о н/о +16.8 +15.2 90 +18 +18 1017.4 1011.1
04 19.09 В 3 н/о н/о +16.4 +15.3 93 +16 +16 1016.9 1010.6
05 19.09 В 1 н/о н/о +16.3 +14.9 91 +17 +17 1017.3 1011.0
06 19.09 З 1 8000 м слаб. дождь 10/8 1000 м
[Sc As op]
+16.7 +15.2 91 +18 +18 1017.3 1011.0 +16.4 8
07 19.09 СЗ 2 13 км в посл. час дождь 8/5 1000 м
[Sc Ac As]
+17.3 +13.8 80 +18 +18 1017.1 1010.8
08 19.09 СВ 3 13 км 6/3 1000 м
[Cu Sc Ac As]
+18.9 +14.9 78 +20 +22 1017.5 1011.2
09 19.09 В 1 15 км 8/4 1000 м
[Cu Sc Ac As]
+20.8 +14.4 67 +25 +28 комфорт 1018.0 1011.8
10 19.09 Ю 1 15 км 8/5 1000 м
[Cu Sc Ac As]
+21.8 +13.1 58 +24 +28 комфорт 1018.0 1011.8
11 19.09 СВ 2 15 км 6/3 1000 м
[Cu Sc Ac As Ci sp]
+22.5 +11.3 49 +25 +31 комфорт 1018.4 1012.2
12 19.09 СВ 1 20 км 4/1 1000 м
[Cu hum As trans Ci sp]
+23.6 +8.1 37 +24 +33 комфорт 1018.2 1012.0 0.0
13 19.09 С 2 20 км 4/0
[As trans Ci sp]
+23.2 +9.2 41 +25 +32 комфорт 1017.9 1011.7
14 19.09 С 2 н/о н/о +23.6 +7.7 36 +24 +24 комфорт 1017.8 1011.6
15 19.09 С 2 н/о н/о +23.4 +7.5 36 +24 +24 комфорт 1018.0 1011.8
16 19.09 С 2 н/о н/о +22.2 +8.4 41 +23 +23 комфорт 1018.3 1012.1
17 19.09 С 2 н/о н/о +20.7 +10.0 50 +23 +23 комфорт 1018.9 1012.6
18 19.09 СВ 2 25 км 3/0
[Ac As Ci sp]
+20.2 +9.5 50 +22 +22 комфорт 1019.5 1013.3 +23.9 0.0
19 19.09 С 2 25 км 3/0
[As trans Ci sp]
+19.2 +10.8 58 +21 +21 комфорт 1020.4 1014.1
20 19.09 В 3 25 км 3/0
[Ci sp]
+19.3 +7.9 48 +20 +20 1021.0 1014.7
21 19.09 В 2 н/о н/о +18.5 +7.0 47 +19 +19 1021.7 1015.4
00 20.09 СВ 2 н/о н/о +18.0 +5.9 45 +19 +19 1022.5 1016.2
03 20.09 СВ 2 н/о н/о +17.2 +4.6 43 +18 +18 1023.0 1016.6
04 20.09 СВ 3 н/о н/о +17.2 +2.8 38 +17 +17 1023.2 1016.8
05 20.09 С 2 н/о н/о +16.6 +6.8 52 +17 +17 1023.6 1017.2
06 20.09 С 3 20 км 1/0
[Ci fib]
+17.2 +6.0 48 +17 +18 1023.7 1017.4 +16.7
07 20.09 С 4 20 км ясно +17.2 +7.4 52 +17 +19 1023.9 1017.6
08 20.09 С 4 25 км ясно +17.8 +7.1 49 +18 +21 1024.0 1017.7
09 20.09 С 2 25 км 1/0
[Ci fib]
+19.3 +4.5 38 +20 +28 1023.9 1017.6
10 20.09 С 2 30 км 3/0
[Ac trans Ci]
+20.2 +4.5 36 +21 +31 комфорт 1023.9 1017.6
11 20.09 С 3 30 км 3/0
[Ac trans Ci]
+20.6 +4.0 34 +22 +30 комфорт 1023.5 1017.2
12 20.09 С 3 35 км 5/0
[Ac trans Cs]
+20.2 +3.7 34 +21 +28 комфорт 1023.4 1017.1
13 20.09 СВ 3 35 км 4/0
[Cs]
+20.4 +2.9 31 +21 +27 комфорт 1023.5 1017.2
14 20.09 С 3 н/о н/о +20.7 +3.0 31 +21 +21 комфорт 1023.3 1017.0
15 20.09 С 3 н/о н/о +20.0 +4.5 36 +21 +21 комфорт 1023.1 1016.8
16 20.09 С 4 н/о н/о +19.5 +6.3 42 +20 +20 1023.1 1016.8
17 20.09 С 3 н/о н/о +18.3 +7.2 48 +19 +19 1023.0 1016.7
18 20.09 С 3 25 км ясно +18.1 +9.0 55 +18 +18 1023.4 1017.1 +21.0
19 20.09 СЗ 1 25 км ясно +17.3 +8.8 57 +18 +18 1023.7 1017.4
20 20.09 СЗ 1 25 км ясно +17.0 +7.8 55 +18 +18 1023.7 1017.4
21 20.09 СЗ 1 н/о н/о +16.4 +7.7 56 +17 +17 1023.9 1017.5
00 21.09 С 1 н/о н/о +16.4 +8.4 59 +17 +17 1023.9 1017.5
03 21.09 СЗ 1 н/о н/о +15.4 +8.5 63 +16 +16 1023.4 1017.0
04 21.09 З 1 н/о н/о +15.1 +8.2 63 +16 +16 1023.4 1017.0
06 21.09 ЮЗ 2 25 км ясно +16.2 +9.0 62 +16 +17 1024.0 1017.6 +15.4
07 21.09 С 3 25 км ясно +17.1 +9.0 59 +17 +19 1023.9 1017.6
08 21.09 С 2 25 км ясно +19.2 +9.3 53 +21 +26 комфорт 1024.2 1017.9
09 21.09 С 2 25 км 1/0
[Ci fib]
+20.8 +7.4 42 +23 +30 комфорт 1024.2 1017.9
10 21.09 С 2 30 км ясно +21.8 +6.7 38 +23 +33 комфорт 1024.1 1017.9
11 21.09 С 2 30 км ясно +22.6 +5.6 33 +23 +34 комфорт 1023.8 1017.6
12 21.09 С 2 30 км ясно +22.6 +5.0 32 +23 +33 комфорт 1023.7 1017.5
13 21.09 ЮЗ 3 30 км ясно +23.2 +7.3 36 +24 +31 комфорт 1023.7 1017.5
14 21.09 З 4 н/о н/о +22.1 +6.0 35 +23 +23 комфорт 1023.1 1016.8
15 21.09 З 4 н/о н/о +22.1 +5.6 34 +23 +23 комфорт 1022.7 1016.5
16 21.09 З 2 н/о н/о +21.5 +6.3 37 +22 +22 комфорт 1022.6 1016.3
17 21.09 З 1 н/о н/о +19.5 +6.0 41 +21 +21 комфорт 1022.2 1015.9
18 21.09 СЗ 1 30 км 1/0
[Ci fib]
+18.4 +6.9 47 +20 +20 1022.1 1015.8 +23.5
19 21.09 С 1 30 км 1/0
[Ci fib]
+17.8 +10.5 62 +19 +19 1022.1 1015.8
20 21.09 С 1 30 км ясно +17.3 +9.1 59 +18 +18 1022.3 1016.0
21 21.09 СЗ 1 н/о н/о +16.7 +9.7 63 +18 +18 1022.4 1016.0

 

Местоположение метеостанции Мали-Лошинь (Хорватия): широта 44.53 долгота 14.48 высота над уровнем моря 53 м.

В архиве по умолчанию представлена погода в Мали-Лошине за последнюю неделю. Архивные данные за месяц целиком и за предыдущие месяцы, начиная с января 2011 года, Вы можете получить, выбрав интересующий диапазон дат из раскрывающегося списка и нажав кнопку "Ввод!".


*Определитесь, кто Вы:
робот инопланетянин человек

Внимание! Время в таблицах - всемирное. Для получения местного времени необходимо прибавить поправку, которая равна 1 ч.

Смотрите также архив погоды в соседних городах и на ближайших метеорологических станциях:

Погода в Рабе (Хорватия) (34 км)
Погода в Завизани (Хорватия) (51 км)
Погода в Пуле (Хорватия) (60 км)
Погода в Сене (Хорватия) (62 км)
Погода в Госпиче (Хорватия) (71 км)
Погода в Задаре (Хорватия) (74 км)
Погода в Риека аэропорту (Хорватия) (77 км)
Погода в Задар аэропорту (Хорватия) (84 км)
Погода в Риеке (Хорватия) (89 км)
Погода в Пазине (Хорватия) (89 км)

Пояснения к столбцам:

Ветер - указаны скорость ветра в м/с - средняя за 10 мин, порывы в срок и между сроками (в фигурных скобках) и направление, откуда дует ветер: С - северный, СВ - северо-восточный, В - восточный, ЮВ - юго-восточный, Ю - южный, ЮЗ - юго-западный, З - западный, СЗ - северо-западный.
Видимость - горизонтальная дальность видимости в метрах или километрах. При видимости от 1 до 10 км при отсутствии осадков обычно наблюдается дымка, при ухудшении видимости до 1 км и менее - туман. В сухую погоду видимость может ухудшаться дымом, пылью или мглою.
Явления - указаны атмосферные явления, наблюдавшиеся в срок или в последний час перед сроком; фигурными скобками обозначены явления, наблюдавшиеся между сроками (за 1-3 часа до срока); квадратными скобками обозначены град или гололедные отложения с указанием их диаметра в мм.
Облачность - указаны через наклонную черту общая и нижняя облачность в баллах и высота нижней границы облаков в метрах; квадратными скобками обозначены формы облаков: Ci - перистые, Cs - перисто-слоистые, Cc - перисто-кучевые, Ac - высококучевые, As - высокослоистые, Sc - слоисто-кучевые, Ns - слоисто-дождевые, Cu - кучевые, Cb - кучево-дождевые. Подробнее классификацию облаков см. в Атласе облаков (PDF).
T - Температура воздуха - температура, измеренная на высоте 2 м над землей.
Td - Температура точки росы - температура, при понижении до которой содержащийся в воздухе водяной пар достигнет насыщения.
f - Относительная влажность воздуха - влажноcть воздуха, измеренная на высоте 2 м над землей.
Te - Эффективная температура - температура, которую ощущает одетый по сезону человек в тени. Характеристика душности погоды. При расчете учитывается влияние влажности воздуха и скорости ветра на теплоощущения человека.
Tes - Эффективная температура на солнце - температура, которую ощущает человек, с поправкой на солнечный нагрев. Характеристика знойности погоды. Зависит от высоты солнца над горизонтом, облачности и скорости ветра. Ночью, в пасмурную погоду, а также при ветре 12 м/с и более поправка равна нулю.
P - Атмосферное давление - приведенное к уровню моря атмосферное давление.
Po - Атмосферное давление - измеренное на уровне метеостанции атмосферное давление.
Tmin - Минимальная температура - минимум температуры воздуха на высоте 2 м над землей.
Tmax - Максимальная температура - максимум температуры воздуха на высоте 2 м над землей.
R - Количество осадков - Количество выпавших осадков за период времени, мм. При наведении курсора мыши на число - период времени, за который выпало указанное количество осадков.
R24 - Количество осадков - Количество выпавших осадков за 24 часа, мм.
S - Снежный покров - Высота снежного покрова, см. При наведении курсора мыши на число - состояние снежного покрова и степень покрытия местности в баллах.